sat.trackr.live / text

‹ back to catalog

STARLINK-37081

NORAD 68229 · 2026-053Y

PAYLOAD ACTIVE UNKNOWN

§ Identity

Operator
Country
US
Launch date
2026-03-17
Launch site
AFWTR
Launch vehicle
Mass (kg)
RCS (m²)

Purposes: comms

External: N2YO · Heavens-Above · Gunter

§ Orbital elements

Epoch: 2026-09-20T02:55:42.668832Z

Period
93.90 min
Inclination
97.2840°
Eccentricity
0.0002590
Mean motion
15.33466307 rev/d
Perigee alt
463.7 km
Apogee alt
467.3 km
Semi-major
6,843.6 km
B*
3.2048e-4
RAAN
139.9242°
Arg perigee
76.8985°
Mean anomaly
283.2546°
Rev number
3,021

§ Raw data

STARLINK-370811 68229U 26053Y   26263.12202163  .00010293  00000+0  32048-3 0  99932 68229  97.2840 139.9242 0002590  76.8985 283.2546 15.33466307 30212

JSON: /api/v1/satellites/68229 · /tle

For live sub-satellite position, see the globe view (requires WebGL).

§ Visibility from observer

Set your observer location to see the next 7 days of passes ≥ 10°. The values pass through the URL so the page stays shareable.

No JS? Fill the form by hand. The geolocation button needs JavaScript.